Tracking 28790 objects as of 19-Apr-2024
HD Live streaming from Space Station
objects crossing your sky now

STARLINK-1877

Track STARLINK-1877 now!
10-day predictions
STARLINK-1877 is classified as:


NORAD ID: 47162
Int'l Code: 2020-088AS
Perigee: 553.3 km
Apogee: 555.3 km
Inclination: 53.1 °
Period: 95.6 minutes
Semi major axis: 6925 km
RCS: Unknown
Launch date: November 25, 2020
Source: United States (US)
Launch site: AIR FORCE EASTERN TEST RANGE (AFETR)
Your satellite tracking list
Your tracking list is empty




NASA's NSSDC Master Catalog

Two Line Element Set (TLE):
1 47162U 20088AS  24110.16017582  .00006483  00000-0  45358-3 0  9995
2 47162  53.0536 157.0366 0001458 106.5217 253.5933 15.06412430188162
Source of the keplerian elements: AFSPC